SA3VCC-13 Weather Reports


time (UTC)temp
C
wind
direction
speed
KPH
gust
KPH
rain 1hr
cm
rain 24hr
cm
rain mn
cm
humidity
%
barometer
mb
20221207222909 -15 270 1.6 3.2 0.00 0.00 0.00 100 1002.3
20221207221907 -14 270 1.6 1.6 0.00 0.00 0.00 100 1002.4
20221207220905 -14 270 1.6 1.6 0.00 0.00 0.00 100 1002.5
20221207215903 -14 187 1.6 3.2 0.00 0.00 0.00 100 1002.6
20221207214901 -14 187 1.6 3.2 0.00 0.00 0.00 100 1002.6
20221207213859 -14 245 1.6 3.2 0.00 0.00 0.00 100 1002.5
20221207212857 -14 192 1.6 1.6 0.00 0.00 0.00 100 1002.8
20221207211855 -14 192 1.6 1.6 0.00 0.00 0.00 100 1002.8
20221207210853 -14 270 1.6 4.8 0.00 0.00 0.00 100 1002.8
20221207205851 -14 270 1.6 4.8 0.00 0.00 0.00 100 1002.8
20221207204849 -14 270 1.6 3.2 0.00 0.00 0.00 100 1002.9
20221207203847 -14 270 1.6 4.8 0.00 0.00 0.00 100 1002.8
20221207202845 -14 270 1.6 3.2 0.00 0.00 0.00 100 1003.0
20221207201843 -14 270 1.6 3.2 0.00 0.00 0.00 100 1003.0
20221207200841 -14 198 1.6 3.2 0.00 0.00 0.00 100 1003.0
20221207195839 -14 270 1.6 3.2 0.00 0.00 0.00 100 1002.9
20221207194837 -14 214 1.6 3.2 0.00 0.00 0.00 100 1003.3
20221207193835 -14 214 1.6 3.2 0.00 0.00 0.00 100 1003.3
20221207192833 -14 214 1.6 3.2 0.00 0.00 0.00 100 1003.5
20221207191831 -14 214 1.6 3.2 0.00 0.00 0.00 100 1003.5
20221207190829 -14 225 1.6 3.2 0.00 0.00 0.00 100 1003.5
20221207185827 -14 225 1.6 3.2 0.00 0.00 0.00 100 1003.5
20221207184825 -14 237 1.6 3.2 0.00 0.00 0.00 100 1003.5
20221207183824 -14 205 1.6 1.6 0.00 0.00 0.00 100 1003.9
20221207182821 -14 205 1.6 1.6 0.00 0.00 0.00 100 1003.9
20221207181819 -14 215 1.6 3.2 0.00 0.00 0.00 100 1003.8
20221207180817 -13 248 1.6 3.2 0.00 0.00 0.00 100 1003.9
20221207175815 -13 230 1.6 3.2 0.00 0.00 0.00 100 1004.0
20221207174813 -13 207 1.6 3.2 0.00 0.00 0.00 100 1004.0
20221207173811 -13 236 1.6 3.2 0.00 0.00 0.00 100 1004.1
20221207172809 -13 201 1.6 3.2 0.00 0.00 0.00 100 1004.2
20221207171807 -13 254 1.6 3.2 0.00 0.00 0.00 100 1004.2
20221207170805 -13 233 1.6 3.2 0.00 0.00 0.00 100 1004.2
20221207165803 -13 245 1.6 3.2 0.00 0.00 0.00 100 1004.3
20221207164801 -13 270 1.6 3.2 0.00 0.00 0.00 100 1004.3
20221207163800 -12 270 1.6 3.2 0.00 0.00 0.00 100 1004.4
20221207162757 -12 203 1.6 3.2 0.00 0.00 0.00 100 1004.5
20221207161756 -12 200 1.6 3.2 0.00 0.00 0.00 100 1004.4
20221207160753 -12 207 1.6 3.2 0.00 0.00 0.00 100 1004.4
20221207155751 -12 239 1.6 3.2 0.00 0.00 0.00 100 1004.4
20221207154749 -12 222 1.6 3.2 0.00 0.00 0.00 100 1004.6
20221207153748 -11 270 1.6 3.2 0.00 0.00 0.00 100 1004.7
20221207152745 -11 202 1.6 3.2 0.00 0.00 0.00 100 1004.8
20221207151743 -11 236 1.6 3.2 0.00 0.00 0.00 100 1004.8
20221207150741 -11 270 1.6 3.2 0.00 0.00 0.00 100 1004.8
20221207145739 -11 270 1.6 3.2 0.00 0.00 0.00 100 1004.9
20221207144737 -10 252 1.6 3.2 0.00 0.00 0.00 100 1004.9
20221207143735 -10 205 1.6 3.2 0.00 0.00 0.00 100 1005.2
20221207142733 -10 270 1.6 3.2 0.00 0.00 0.00 100 1005.2
20221207141731 -10 270 1.6 3.2 0.00 0.00 0.00 100 1005.3
20221207140729 -9 211 1.6 3.2 0.00 0.00 0.00 100 1005.4
20221207135728 -8 315 1.6 1.6 0.00 0.00 0.00 100 1005.5
20221207134725 -8 270 1.6 3.2 0.00 0.00 0.00 100 1005.5
20221207133725 -8 219 1.6 3.2 0.00 0.00 0.00 100 1005.6
20221207132721 -8 270 1.6 1.6 0.00 0.00 0.00 100 1005.7
20221207131719 -8 270 1.6 3.2 0.00 0.00 0.00 100 1005.7
20221207130717 -7 242 1.6 3.2 0.00 0.00 0.00 100 1005.8
20221207125715 -7 245 1.6 4.8 0.00 0.00 0.00 100 1005.8
20221207124713 -7 270 1.6 3.2 0.00 0.00 0.00 100 1005.8
20221207123712 -7 225 1.6 3.2 0.00 0.00 0.00 100 1005.9
20221207122709 -7 233 1.6 3.2 0.00 0.00 0.00 100 1006.1
20221207121708 -8 270 1.6 3.2 0.00 0.00 0.00 100 1006.1
20221207120705 -8 246 1.6 3.2 0.00 0.00 0.00 100 1006.2
20221207115703 -8 205 3.2 3.2 0.00 0.00 0.00 100 1006.3
20221207114701 -9 270 3.2 6.4 0.00 0.00 0.00 100 1006.4
20221207113659 -9 237 1.6 3.2 0.00 0.00 0.00 100 1006.5
20221207112657 -10 225 1.6 3.2 0.00 0.00 0.00 100 1006.7
20221207111655 -10 270 1.6 3.2 0.00 0.00 0.00 100 1006.8
20221207110653 -10 270 1.6 3.2 0.00 0.00 0.00 100 1007.0
20221207105651 -10 231 1.6 3.2 0.00 0.00 0.00 100 1006.9
20221207104650 -10 207 1.6 3.2 0.00 0.00 0.00 100 1007.0
20221207103647 -11 201 1.6 1.6 0.00 0.00 0.00 100 1007.0
20221207102645 -11 203 1.6 3.2 0.00 0.00 0.00 100 1007.1
20221207101643 -11 270 1.6 3.2 0.00 0.00 0.00 100 1007.2
20221207100641 -11 270 1.6 4.8 0.00 0.00 0.00 100 1007.2
20221207095639 -11 270 3.2 4.8 0.00 0.00 0.00 100 1007.2
20221207094637 -12 270 1.6 3.2 0.00 0.00 0.00 100 1007.2
20221207093636 -12 244 1.6 3.2 0.00 0.00 0.00 100 1007.2
20221207092633 -12 213 1.6 3.2 0.00 0.00 0.00 100 1007.4
20221207091631 -12 270 1.6 4.8 0.00 0.00 0.00 100 1007.4
20221207090629 -12 232 3.2 4.8 0.00 0.00 0.00 100 1007.4
20221207085628 -13 255 1.6 3.2 0.00 0.00 0.00 100 1007.4
20221207084626 -13 236 1.6 3.2 0.00 0.00 0.00 100 1007.3
20221207083623 -13 213 1.6 3.2 0.00 0.00 0.00 100 1007.5
20221207082621 -13 236 1.6 4.8 0.00 0.00 0.00 100 1007.4
20221207081619 -13 254 1.6 3.2 0.00 0.00 0.00 100 1007.4
20221207080617 -13 237 1.6 3.2 0.00 0.00 0.00 100 1007.5
20221207075615 -13 214 1.6 3.2 0.00 0.00 0.00 100 1007.6
20221207074614 -12 270 1.6 3.2 0.00 0.00 0.00 100 1007.6
20221207073611 -12 219 1.6 3.2 0.00 0.00 0.00 100 1007.7
20221207072609 -12 213 1.6 3.2 0.00 0.00 0.00 100 1007.7
20221207071607 -12 253 1.6 3.2 0.00 0.00 0.00 100 1007.7
20221207070605 -12 259 3.2 4.8 0.00 0.00 0.00 100 1007.6
20221207065603 -12 249 1.6 3.2 0.00 0.00 0.00 100 1007.6
20221207064601 -12 270 3.2 4.8 0.00 0.00 0.00 100 1007.7
20221207063559 -12 270 1.6 3.2 0.00 0.00 0.00 100 1007.7
20221207062557 -12 237 1.6 3.2 0.00 0.00 0.00 100 1007.6
20221207061555 -12 260 3.2 3.2 0.00 0.00 0.00 100 1007.6
20221207060554 -12 251 1.6 3.2 0.00 0.00 0.00 100 1007.6
20221207055551 -12 251 1.6 3.2 0.00 0.00 0.00 100 1007.6
20221207054549 -12 244 3.2 3.2 0.00 0.00 0.00 100 1007.7
20221207053547 -12 244 3.2 3.2 0.00 0.00 0.00 100 1007.7
20221207052545 -12 212 1.6 3.2 0.00 0.00 0.00 100 1007.6
20221207051543 -12 249 1.6 3.2 0.00 0.00 0.00 100 1007.7
20221207050541 -12 270 1.6 3.2 0.00 0.00 0.00 100 1007.7
20221207045539 -12 198 1.6 3.2 0.00 0.00 0.00 100 1007.8
20221207044537 -12 198 1.6 3.2 0.00 0.00 0.00 100 1007.8
20221207043535 -12 244 1.6 3.2 0.00 0.00 0.00 100 1007.9
20221207042532 -11 270 1.6 3.2 0.00 0.00 0.00 100 1008.0
20221207041530 -11 229 1.6 3.2 0.00 0.00 0.00 100 1008.1
20221207040528 -11 236 1.6 3.2 0.00 0.00 0.00 100 1008.1
20221207035526 -11 249 1.6 3.2 0.00 0.00 0.00 100 1008.2
20221207034524 -11 240 1.6 3.2 0.00 0.00 0.00 100 1008.3
20221207033522 -11 249 1.6 3.2 0.00 0.00 0.00 100 1008.3
20221207032520 -11 210 1.6 3.2 0.00 0.00 0.00 100 1008.3
20221207031518 -11 270 1.6 3.2 0.00 0.00 0.00 100 1008.3
20221207030516 -11 230 1.6 3.2 0.00 0.00 0.00 100 1008.4
20221207025514 -11 228 1.6 3.2 0.00 0.00 0.00 100 1008.5
20221207024513 -11 270 1.6 3.2 0.00 0.00 0.00 100 1008.5
20221207023510 -11 270 1.6 3.2 0.00 0.00 0.00 100 1008.7
20221207022508 -10 225 1.6 3.2 0.00 0.00 0.00 100 1008.8
20221207021507 -10 225 1.6 3.2 0.00 0.00 0.00 100 1008.7
20221207020505 -10 270 1.6 3.2 0.00 0.00 0.00 100 1008.8
20221207015503 -10 270 1.6 3.2 0.00 0.00 0.00 100 1008.8
20221207014501 -10 252 1.6 3.2 0.00 0.00 0.00 100 1008.8
20221207013459 -10 242 1.6 3.2 0.00 0.00 0.00 100 1009.0
20221207012457 -10 218 1.6 1.6 0.00 0.00 0.00 100 1008.8
20221207012011 -10 218 0.0 1.6 0.00 0.00 0.00 100 1009.2
20221207011455 -10 252 1.6 3.2 0.00 0.00 0.00 100 1008.9
20221207010453 -10 253 1.6 4.8 0.00 0.00 0.00 100 1008.9
20221207005451 -10 225 1.6 3.2 0.00 0.00 0.00 100 1008.8
20221207004449 -10 255 1.6 3.2 0.00 0.00 0.00 100 1008.9
20221207003447 -10 225 1.6 3.2 0.00 0.00 0.00 100 1009.0
20221207002445 -10 225 1.6 3.2 0.00 0.00 0.00 100 1009.0
20221207001443 -10 287 1.6 3.2 0.00 0.00 0.00 100 1009.0
20221207000443 -10 287 1.6 3.2 0.00 0.00 0.00 100 1009.0
20221206235439 -10 247 1.6 3.2 0.00 0.00 0.00 100 1008.9
20221206234438 -10 225 1.6 3.2 0.00 0.00 0.00 100 1008.8
20221206233435 -10 252 1.6 3.2 0.00 0.00 0.00 100 1009.0
20221206232433 -10 243 1.6 3.2 0.00 0.00 0.00 100 1009.0
20221206231431 -9 240 1.6 3.2 0.00 0.00 0.00 100 1009.0
20221206230429 -9 225 1.6 3.2 0.00 0.00 0.00 100 1009.0
20221206225427 -9 240 1.6 3.2 0.00 0.00 0.00 100 1009.1
20221206224425 -9 208 1.6 3.2 0.00 0.00 0.00 100 1009.1